Miscellaneous Local Product
Issued by NWS North Platte, NE

Home | Current Version | Previous Version | Text Only | Print | Product List | Glossary On
Versions: 1 2 3 4 5 6 7 8 9 10 11 12 13 14 15 16 17 18 19 20 21 22 23 24 25 26 27 28 29 30 31 32 33 34 35 36 37 38 39 40 41 42 43 44 45 46 47 48 49 50
577
AXUS43 KLBF 230810
MISLBF


WESTERN AND NORTH CENTRAL NEBRASKA HOURLY WEATHER ROUNDUP
NATIONAL WEATHER SERVICE NORTH PLATTE NE
300 AM CDT SAT JUL 23 2016

NOTE: "FAIR" INDICATES FEW OR NO CLOUDS BELOW 12,000 FEET WITH NO
SIGNIFICANT WEATHER AND/OR OBSTRUCTIONS TO VISIBILITY.

NOTE: STATIONS NOT REPORTING VARIABLES SUCH AS SKY/WEATHER OR
PRESSURE ARE PROVIDED BY RAWS AND APRS NETWORKS AND ARE NOT UNDER
NATIONAL WEATHER SERVICE QUALITY CONTROL.

...OBSERVATIONS IN AND NEAR THE EASTERN PANHANDLE OF NEBRASKA...

CITY           SKY/WX    TMP DP  RH WIND       PRES   REMARKS
PINE RIDGE     CLOUDY    73  59  61 SE7       29.94F
CHADRON        CLOUDY    70  62  76 SE6       29.93F
ALLIANCE       CLOUDY    67  62  84 S9        29.97F
SIDNEY         CLOUDY    67  63  87 S7        30.03F
CRESCENT LAKE    N/A     68  61  78 S7G15       N/A
$$

...OBSERVATIONS IN NORTHERN NEBRASKA AND FAR SOUTHERN SOUTH DAKOTA...

CITY           SKY/WX    TMP DP  RH WIND       PRES   REMARKS
WINNER         FAIR      82  76  81 E8        29.88F
VALENTINE      CLOUDY    76  67  73 SW7       29.92R
THEDFORD       CLOUDY    79  60  52 S28G40    29.93R
AINSWORTH      CLOUDY    73  64  75 W3        29.94R
O`NEILL        TSTM      73  68  82 SW9G21    29.92F
ORD            RAIN      71  66  84 S12       29.98R
BROKEN BOW     RAIN      70  67  90 SE13      30.04R
VALENTINE NWR    N/A     72  64  76 W5          N/A
BUTTE            N/A     79  76  91 S6          N/A
HALSEY           N/A     79  59  50 S16G35      N/A
EWING            N/A     78  74  87 SW7G14      N/A
$$

...OBSERVATIONS IN SOUTHWEST NEBRASKA AND FAR NORTHEAST COLORADO...

CITY           SKY/WX    TMP DP  RH WIND       PRES   REMARKS
HOLYOKE        FAIR      73  68  83 W5        29.97F
IMPERIAL       CLOUDY    72  63  73 E14       29.94F THUNDER
OGALLALA       CLOUDY    73  64  74 E7        29.94F
NORTH PLATTE   LGT RAIN  70  65  84 SE20G31   29.88F
MCCOOK         CLOUDY    72  66  81 E12       29.97F
LEXINGTON      RAIN      70  67  89 N9        30.02F
STAPLETON        N/A     69  65  88 E3          N/A
GOTHENBURG       N/A     69  63  82 N12         N/A
CALLAWAY         N/A     67  65  95 SW10        N/A
$$

...OBSERVATIONS IN CENTRAL LINCOLN COUNTY AREA...

CITY           SKY/WX    TMP DP  RH WIND       PRES   REMARKS
N.P. AIRPORT   LGT RAIN  70  65  84 SE20G31   29.88F
N.P. DOWNTOWN    N/A     71  66  84 SW3G12      N/A
N.P. SOUTHEAST   N/A     68  66  94 S8          N/A
N.P. HILLCREST   N/A     71  65  82 SW9         N/A
$$

...SOME OBSERVATIONS FROM AROUND THE REGION...

CITY           SKY/WX    TMP DP  RH WIND       PRES   REMARKS
DENVER         CLOUDY    72  50  45 SW7       30.12S
LARAMIE        CLOUDY    63  44  50 SW13G23   30.26S
CHEYENNE       CLOUDY    70  47  43 W3        30.17F
SCOTTSBLUFF    PTCLDY    65  60  84 E6        29.99F
RAPID CITY     MOCLDY    71  55  56 NE10      29.92R
BISMARCK       CLOUDY    70  64  81 S3        29.85F
PIERRE         CLOUDY    78  70  76 E17       29.81F
SIOUX FALLS    PTCLDY    80  77  90 E7        29.89F
OMAHA          CLOUDY    84  74  71 S9        29.90R HX  91
GRAND ISLAND   LGT RAIN  78  69  73 W8G31     29.96R
KANSAS CITY    PTCLDY    79  73  82 S9        29.96F
WICHITA        PTCLDY    81  67  62 S10       29.94S
OKLAHOMA CITY  CLEAR     76  68  76 S6        29.98S
DALLAS         CLEAR     83  69  62 S8        29.95F
AMARILLO       CLEAR     71  53  52 S10       30.07S
DODGE CITY     CLEAR     75  60  59 S9        29.97S
HAYS           CLOUDY    82  57  42 S12       29.92S
GOODLAND       CLOUDY    71  65  81 E8        29.99S
$$




USA.gov is the U.S. government's official web portal to all federal, state and local government web resources and services.